When you browse on this site, cookies collect data to enhance your experience and personalize the content and advertising you see.
Visit our Privacy Policy to learn more. By continuing to use the site, you agree to this use of cookies and data.
  • Em Portugal
  • Lista de países
  • Para 7 dias
  • Temperatura da água
  • Mapas de satélite
  • Mapa do tempo
  • Widgets de tempo
  • user-avatar
    Iniciar Sessão

    Previsão horária em Ali Bayramli

    Hoje, 21 Maio, Terça-feira

    Tempo Temperatura Precipitação Vento Pressão Humidade
    00:00 +22°C° 0 mm 6 m/s 760 mmHg 31%
    01:00 +22°C° 0 mm 5 m/s 760 mmHg 34%
    02:00 +21°C° 0 mm 4 m/s 760 mmHg 37%
    03:00 +20°C° 0 mm 3 m/s 760 mmHg 42%
    04:00 +21°C° 0.1 mm 4 m/s 760 mmHg 43%
    05:00 +21°C° 0.1 mm 4 m/s 761 mmHg 44%
    06:00 +21°C° 0.1 mm 5 m/s 761 mmHg 45%
    07:00 +22°C° 0 mm 6 m/s 762 mmHg 42%
    08:00 +23°C° 0 mm 6 m/s 762 mmHg 40%
    09:00 +24°C° 0 mm 7 m/s 762 mmHg 37%
    10:00 +24°C° 0 mm 7 m/s 762 mmHg 35%
    11:00 +26°C° 0 mm 7 m/s 762 mmHg 34%
    12:00 +26°C° 0 mm 8 m/s 762 mmHg 32%
    13:00 +26°C° 0 mm 8 m/s 762 mmHg 32%
    14:00 +26°C° 0 mm 8 m/s 762 mmHg 31%
    15:00 +24°C° 0 mm 8 m/s 763 mmHg 32%
    16:00 +24°C° 0 mm 7 m/s 763 mmHg 33%
    17:00 +23°C° 0 mm 7 m/s 763 mmHg 34%
    18:00 +22°C° 0 mm 6 m/s 763 mmHg 35%
    19:00 +22°C° 0 mm 5 m/s 763 mmHg 37%
    20:00 +21°C° 0 mm 5 m/s 763 mmHg 39%
    21:00 +20°C° 0 mm 4 m/s 763 mmHg 41%
    22:00 +19°C° 0 mm 3 m/s 764 mmHg 43%
    23:00 +19°C° 0 mm 2 m/s 764 mmHg 45%

    Amanhã, 22 Maio, Quarta-feira

    Tempo Temperatura Precipitação Vento Pressão Humidade
    00:00 +18°C° 0 mm 2 m/s 764 mmHg 47%
    01:00 +19°C° 0 mm 1 m/s 764 mmHg 49%
    02:00 +19°C° 0 mm 1 m/s 763 mmHg 52%
    03:00 +18°C° 0 mm 1 m/s 763 mmHg 54%
    04:00 +19°C° 0 mm 1 m/s 763 mmHg 52%
    05:00 +19°C° 0 mm 1 m/s 763 mmHg 50%
    06:00 +20°C° 0 mm 1 m/s 763 mmHg 48%
    07:00 +21°C° 0 mm 1 m/s 763 mmHg 44%
    08:00 +22°C° 0 mm 1 m/s 763 mmHg 40%
    09:00 +23°C° 0 mm 1 m/s 763 mmHg 37%
    10:00 +25°C° 0 mm 1 m/s 762 mmHg 35%
    11:00 +26°C° 0 mm 2 m/s 762 mmHg 33%
    12:00 +27°C° 0 mm 3 m/s 761 mmHg 31%
    13:00 +27°C° 0 mm 3 m/s 760 mmHg 30%
    14:00 +28°C° 0 mm 4 m/s 760 mmHg 29%
    15:00 +28°C° 0 mm 5 m/s 759 mmHg 27%
    16:00 +27°C° 0 mm 5 m/s 759 mmHg 28%
    17:00 +26°C° 0 mm 5 m/s 759 mmHg 30%
    18:00 +25°C° 0 mm 5 m/s 759 mmHg 31%
    19:00 +23°C° 0 mm 4 m/s 759 mmHg 36%
    20:00 +22°C° 0 mm 3 m/s 759 mmHg 41%
    21:00 +21°C° 0 mm 2 m/s 759 mmHg 46%
    22:00 +21°C° 0 mm 2 m/s 759 mmHg 50%
    23:00 +20°C° 0 mm 2 m/s 758 mmHg 53%

    Depois de amanhã, 23 Maio, Quinta-feira

    Tempo Temperatura Precipitação Vento Pressão Humidade
    00:00 +21°C° 0 mm 1 m/s 758 mmHg 57%
    01:00 +20°C° 0 mm 1 m/s 758 mmHg 59%
    02:00 +20°C° 0 mm 1 m/s 758 mmHg 61%
    03:00 +20°C° 0 mm 1 m/s 758 mmHg 63%
    04:00 +20°C° 0 mm 1 m/s 758 mmHg 61%
    05:00 +20°C° 0 mm 2 m/s 758 mmHg 58%
    06:00 +20°C° 0 mm 2 m/s 758 mmHg 55%
    07:00 +23°C° 0 mm 2 m/s 758 mmHg 48%
    08:00 +24°C° 0 mm 3 m/s 758 mmHg 42%
    09:00 +26°C° 0 mm 3 m/s 758 mmHg 36%
    10:00 +27°C° 0 mm 3 m/s 757 mmHg 32%
    11:00 +29°C° 0 mm 3 m/s 757 mmHg 29%
    12:00 +30°C° 0 mm 3 m/s 757 mmHg 26%
    13:00 +31°C° 0 mm 3 m/s 756 mmHg 26%
    14:00 +31°C° 0 mm 3 m/s 756 mmHg 25%
    15:00 +33°C° 0 mm 3 m/s 756 mmHg 25%
    16:00 +30°C° 0 mm 4 m/s 756 mmHg 32%
    17:00 +28°C° 0 mm 6 m/s 756 mmHg 39%
    18:00 +26°C° 0 mm 7 m/s 756 mmHg 45%
    19:00 +26°C° 0 mm 6 m/s 757 mmHg 46%
    20:00 +25°C° 0 mm 5 m/s 757 mmHg 46%
    21:00 +23°C° 0 mm 5 m/s 758 mmHg 47%
    22:00 +23°C° 0 mm 4 m/s 758 mmHg 49%
    23:00 +22°C° 0 mm 3 m/s 758 mmHg 51%

    24 Maio, Sexta-feira

    Tempo Temperatura Precipitação Vento Pressão Humidade
    00:00 +23°C° 0 mm 2 m/s 758 mmHg 53%
    01:00 +21°C° 0 mm 2 m/s 758 mmHg 55%
    02:00 +22°C° 0 mm 1 m/s 758 mmHg 57%
    03:00 +22°C° 0 mm 1 m/s 758 mmHg 58%
    04:00 +22°C° 0 mm 1 m/s 758 mmHg 55%
    05:00 +23°C° 0 mm 1 m/s 758 mmHg 53%
    06:00 +23°C° 0 mm 2 m/s 758 mmHg 50%
    07:00 +24°C° 0 mm 2 m/s 758 mmHg 46%
    08:00 +26°C° 0 mm 2 m/s 758 mmHg 43%
    09:00 +27°C° 0 mm 2 m/s 759 mmHg 39%
    10:00 +28°C° 0 mm 2 m/s 758 mmHg 37%
    11:00 +29°C° 0 mm 2 m/s 758 mmHg 35%
    12:00 +30°C° 0 mm 2 m/s 758 mmHg 33%
    13:00 +31°C° 0 mm 3 m/s 757 mmHg 33%
    14:00 +32°C° 0 mm 4 m/s 757 mmHg 33%
    15:00 +32°C° 0 mm 5 m/s 757 mmHg 33%
    16:00 +30°C° 0 mm 5 m/s 757 mmHg 36%
    17:00 +29°C° 0 mm 6 m/s 757 mmHg 40%
    18:00 +27°C° 0 mm 7 m/s 757 mmHg 43%
    19:00 +27°C° 0 mm 6 m/s 758 mmHg 46%
    20:00 +26°C° 0 mm 5 m/s 758 mmHg 49%
    21:00 +25°C° 0 mm 4 m/s 759 mmHg 52%
    22:00 +25°C° 0 mm 4 m/s 759 mmHg 55%
    23:00 +24°C° 0 mm 3 m/s 759 mmHg 58%

    25 Maio, Sábado

    Tempo Temperatura Precipitação Vento Pressão Humidade
    00:00 +24°C° 0 mm 2 m/s 759 mmHg 61%
    01:00 +23°C° 0 mm 2 m/s 759 mmHg 64%
    02:00 +23°C° 0 mm 2 m/s 759 mmHg 67%
    03:00 +23°C° 0 mm 1 m/s 759 mmHg 69%
    04:00 +23°C° 0 mm 2 m/s 759 mmHg 68%
    05:00 +23°C° 0 mm 2 m/s 759 mmHg 67%
    06:00 +24°C° 0 mm 2 m/s 759 mmHg 66%
    07:00 +25°C° 0 mm 3 m/s 759 mmHg 60%
    08:00 +27°C° 0 mm 3 m/s 759 mmHg 55%
    09:00 +28°C° 0 mm 3 m/s 758 mmHg 49%
    10:00 +30°C° 0 mm 4 m/s 758 mmHg 46%
    11:00 +32°C° 0 mm 4 m/s 758 mmHg 42%
    12:00 +33°C° 0 mm 5 m/s 757 mmHg 39%
    13:00 +33°C° 0 mm 5 m/s 757 mmHg 38%
    14:00 +33°C° 0 mm 6 m/s 756 mmHg 37%
    15:00 +34°C° 0 mm 7 m/s 755 mmHg 37%
    16:00 +32°C° 0 mm 7 m/s 755 mmHg 39%
    17:00 +30°C° 0 mm 7 m/s 755 mmHg 42%
    18:00 +29°C° 0 mm 7 m/s 755 mmHg 45%
    19:00 +28°C° 0 mm 5 m/s 755 mmHg 48%
    20:00 +27°C° 0 mm 3 m/s 756 mmHg 51%
    21:00 +26°C° 0 mm 2 m/s 756 mmHg 54%
    22:00 +26°C° 0 mm 2 m/s 756 mmHg 56%
    23:00 +25°C° 0 mm 3 m/s 755 mmHg 58%

    26 Maio, Domingo

    Tempo Temperatura Precipitação Vento Pressão Humidade
    00:00 +25°C° 0 mm 3 m/s 755 mmHg 60%
    01:00 +25°C° 0 mm 3 m/s 754 mmHg 63%
    02:00 +25°C° 0 mm 2 m/s 754 mmHg 66%
    03:00 +24°C° 0 mm 1 m/s 753 mmHg 68%
    04:00 +25°C° 0 mm 1 m/s 754 mmHg 66%
    05:00 +25°C° 0 mm 2 m/s 754 mmHg 64%
    06:00 +26°C° 0 mm 2 m/s 754 mmHg 61%
    07:00 +28°C° 0 mm 2 m/s 754 mmHg 53%
    08:00 +29°C° 0 mm 2 m/s 754 mmHg 45%
    09:00 +31°C° 0 mm 2 m/s 754 mmHg 38%
    10:00 +34°C° 0 mm 2 m/s 754 mmHg 34%
    11:00 +34°C° 0 mm 1 m/s 754 mmHg 30%
    12:00 +36°C° 0 mm 1 m/s 754 mmHg 27%
    13:00 +36°C° 0 mm 4 m/s 754 mmHg 30%
    14:00 +35°C° 0 mm 7 m/s 754 mmHg 34%
    15:00 +34°C° 0 mm 11 m/s 754 mmHg 37%
    16:00 +33°C° 0.1 mm 10 m/s 754 mmHg 39%
    17:00 +33°C° 0.1 mm 9 m/s 755 mmHg 42%
    18:00 +32°C° 0.1 mm 8 m/s 755 mmHg 44%
    19:00 +31°C° 0 mm 8 m/s 756 mmHg 44%
    20:00 +29°C° 0 mm 7 m/s 756 mmHg 45%
    21:00 +29°C° 0 mm 6 m/s 756 mmHg 46%
    22:00 +28°C° 0.2 mm 5 m/s 756 mmHg 50%
    23:00 +27°C° 0.2 mm 4 m/s 756 mmHg 54%
    Mostrar mais